Location: Cheadle
(51.0146°N, 113.5417°W)
Time: 11:09:51
(UTC+00:00)

CAS-4A - Visible Passes

Search period start: 05 December 2023 00:00
Search period end: 15 December 2023 00:00
Orbit: 493 x 508 km, 43.0° (Epoch: 05 December)

Date Brightness Start Highest point End Pass type
(mag) Time Alt. Az. Time Alt. Az. Time Alt. Az.
05 Dec ? 00:43:59 10° SW 00:47:11 25° S 00:50:23 10° SE visible
05 Dec ? 02:23:10 10° WSW 02:25:34 18° SSW 02:25:34 18° SSW visible
06 Dec ? 00:22:04 10° WSW 00:25:17 25° S 00:28:29 10° SE visible
06 Dec ? 02:01:18 10° WSW 02:03:54 17° SSW 02:04:55 16° S visible
07 Dec ? 01:39:26 10° WSW 01:41:58 17° SSW 01:44:21 11° SSE visible
08 Dec ? 01:17:32 10° WSW 01:20:00 16° SSW 01:22:28 10° SSE visible
09 Dec ? 00:55:37 10° WSW 00:58:01 16° SSW 01:00:25 10° SSE visible
10 Dec ? 00:33:41 10° WSW 00:36:01 15° SSW 00:38:21 10° SSE visible
11 Dec ? 00:11:43 10° WSW 00:13:59 15° SSW 00:16:15 10° SSE visible
